TimeCDT,TemperatureF,Dew PointF,Humidity,Sea Level PressureIn,VisibilityMPH,Wind Direction,Wind SpeedMPH,Gust SpeedMPH,PrecipitationIn,Events,Conditions,WindDirDegrees,DateUTC
12:13 AM,44.6,39.2,81,29.28,10.0,WNW,16.1,29.9,N/A,,Overcast,290,2012-10-18 05:13:00
12:34 AM,44.6,39.2,81,29.28,10.0,West,17.3,27.6,N/A,,Overcast,280,2012-10-18 05:34:00
12:53 AM,44.6,39.2,81,29.27,10.0,WNW,19.6,26.5,N/A,,Overcast,290,2012-10-18 05:53:00
1:13 AM,44.6,39.2,81,29.28,10.0,WNW,19.6,29.9,N/A,,Overcast,300,2012-10-18 06:13:00
1:34 AM,44.6,39.2,81,29.28,5.0,WNW,18.4,26.5,N/A,,Haze,300,2012-10-18 06:34:00
1:53 AM,42.8,39.2,87,29.27,7.0,WNW,16.1,24.2,N/A,,Overcast,290,2012-10-18 06:53:00
2:14 AM,42.8,39.2,87,29.26,7.0,West,17.3,23.0,N/A,,Overcast,280,2012-10-18 07:14:00
2:33 AM,42.8,39.2,87,29.25,7.0,West,16.1,23.0,N/A,,Overcast,280,2012-10-18 07:33:00
2:53 AM,42.8,39.2,87,29.25,7.0,West,15.0,23.0,N/A,,Overcast,280,2012-10-18 07:53:00
3:13 AM,42.8,39.2,87,29.24,10.0,West,18.4,26.5,N/A,,Overcast,270,2012-10-18 08:13:00
3:34 AM,42.8,39.2,87,29.23,10.0,West,20.7,24.2,N/A,Rain,Light Rain,270,2012-10-18 08:34:00
3:54 AM,42.8,39.2,87,29.22,10.0,West,17.3,-,N/A,Rain,Light Rain,270,2012-10-18 08:54:00
4:14 AM,42.8,39.2,87,29.22,7.0,West,18.4,24.2,N/A,Rain,Light Rain,280,2012-10-18 09:14:00
4:34 AM,42.8,39.2,87,29.21,4.0,West,17.3,-,N/A,Rain,Rain,280,2012-10-18 09:34:00
4:53 AM,42.8,41.0,93,29.21,3.0,West,16.1,-,N/A,Rain,Light Rain,280,2012-10-18 09:53:00
5:13 AM,44.6,41.0,87,29.20,5.0,West,17.3,-,0.01,Rain,Light Rain,280,2012-10-18 10:13:00
5:33 AM,44.6,42.8,93,29.20,10.0,WNW,19.6,-,0.01,Rain,Light Rain,290,2012-10-18 10:33:00
5:53 AM,44.6,42.8,93,29.19,10.0,WNW,18.4,24.2,0.01,Rain,Light Rain,290,2012-10-18 10:53:00
6:13 AM,44.6,42.8,93,29.19,5.0,WNW,18.4,25.3,N/A,,Overcast,300,2012-10-18 11:13:00
6:33 AM,44.6,42.8,93,29.18,3.0,WNW,16.1,24.2,N/A,,Overcast,300,2012-10-18 11:33:00
6:53 AM,44.6,42.8,93,29.19,4.0,NW,19.6,26.5,N/A,Rain,Light Rain,310,2012-10-18 11:53:00
7:13 AM,44.6,42.8,93,29.18,3.0,NW,19.6,-,0.01,Rain,Rain,310,2012-10-18 12:13:00
7:33 AM,44.6,42.8,93,29.18,4.0,NW,19.6,26.5,0.01,Rain,Light Rain,310,2012-10-18 12:33:00
7:53 AM,44.6,42.8,93,29.18,7.0,WNW,16.1,-,0.02,Rain,Light Rain,300,2012-10-18 12:53:00
8:13 AM,44.6,42.8,93,29.18,7.0,NW,16.1,25.3,N/A,Rain,Rain,310,2012-10-18 13:13:00
8:33 AM,44.6,42.8,93,29.17,5.0,NW,18.4,25.3,N/A,,Light Drizzle,310,2012-10-18 13:33:00
8:53 AM,44.6,42.8,93,29.17,3.0,NW,17.3,-,N/A,,Overcast,310,2012-10-18 13:53:00
9:13 AM,44.6,42.8,93,29.18,4.0,NW,18.4,23.0,N/A,,Light Drizzle,310,2012-10-18 14:13:00
9:35 AM,44.6,42.8,93,29.18,4.0,NW,15.0,-,N/A,,Light Drizzle,310,2012-10-18 14:35:00
9:53 AM,44.6,42.8,93,29.19,3.0,NW,12.7,-,N/A,,Overcast,320,2012-10-18 14:53:00
10:13 AM,44.6,42.8,93,29.19,2.5,NNW,13.8,-,N/A,,Overcast,330,2012-10-18 15:13:00
10:33 AM,44.6,42.8,93,29.20,2.5,NW,12.7,-,N/A,,Overcast,320,2012-10-18 15:33:00
10:53 AM,46.4,44.6,93,29.20,7.0,NNW,12.7,17.3,N/A,,Overcast,330,2012-10-18 15:53:00
11:13 AM,46.4,44.6,93,29.20,10.0,NNW,12.7,-,N/A,,Overcast,330,2012-10-18 16:13:00
11:33 AM,46.4,44.6,93,29.21,10.0,NNW,13.8,-,N/A,,Overcast,340,2012-10-18 16:33:00
11:53 AM,46.4,44.6,93,29.22,10.0,NNW,15.0,-,N/A,,Overcast,340,2012-10-18 16:53:00
12:13 PM,48.2,46.4,93,29.24,4.0,NNW,13.8,-,N/A,Rain,Light Rain,340,2012-10-18 17:13:00
12:33 PM,48.2,46.4,93,29.25,5.0,North,15.0,-,N/A,Rain,Light Rain,350,2012-10-18 17:33:00
12:53 PM,48.2,46.4,93,29.26,5.0,North,12.7,-,0.01,Rain,Light Rain,360,2012-10-18 17:53:00
1:14 PM,48.2,44.6,87,29.28,2.5,North,19.6,24.2,N/A,Rain,Light Rain,10,2012-10-18 18:14:00
1:33 PM,46.4,44.6,93,29.30,1.8,North,16.1,24.2,0.01,,Overcast,360,2012-10-18 18:33:00
1:53 PM,46.4,44.6,93,29.31,5.0,North,12.7,-,0.02,Rain,Light Rain,350,2012-10-18 18:53:00
2:13 PM,46.4,44.6,93,29.32,5.0,NNW,18.4,-,N/A,Rain,Light Rain,340,2012-10-18 19:13:00
2:33 PM,46.4,44.6,93,29.33,10.0,NNW,19.6,24.2,0.01,Rain,Light Rain,330,2012-10-18 19:33:00
2:53 PM,46.4,44.6,93,29.33,10.0,NNW,16.1,20.7,0.02,Rain,Light Rain,330,2012-10-18 19:53:00
3:13 PM,48.2,44.6,87,29.34,7.0,NNW,18.4,23.0,N/A,Rain,Rain,330,2012-10-18 20:13:00
3:33 PM,48.2,44.6,87,29.33,10.0,NW,16.1,-,0.01,Rain,Light Rain,310,2012-10-18 20:33:00
3:53 PM,48.2,46.4,93,29.34,10.0,NW,17.3,23.0,0.01,Rain,Light Rain,310,2012-10-18 20:53:00
4:13 PM,48.2,46.4,93,29.35,7.0,NW,26.5,31.1,N/A,Rain,Light Rain,310,2012-10-18 21:13:00
4:34 PM,48.2,44.6,87,29.35,7.0,NW,29.9,38.0,N/A,Rain,Light Rain,320,2012-10-18 21:34:00
4:54 PM,48.2,44.6,87,29.35,4.0,NW,25.3,34.5,0.01,,Overcast,320,2012-10-18 21:54:00
5:13 PM,48.2,44.6,87,29.36,4.0,NW,23.0,35.7,0.01,,Overcast,320,2012-10-18 22:13:00
5:33 PM,46.4,44.6,93,29.36,5.0,NW,29.9,38.0,0.01,,Overcast,320,2012-10-18 22:33:00
5:53 PM,46.4,44.6,93,29.37,7.0,NW,29.9,41.4,0.02,Rain,Light Rain,320,2012-10-18 22:53:00
6:13 PM,46.4,42.8,87,29.37,7.0,NW,32.2,46.0,0.01,Rain,Light Rain,320,2012-10-18 23:13:00
6:33 PM,46.4,42.8,87,29.38,7.0,NW,28.8,40.3,0.02,Rain,Heavy Rain,320,2012-10-18 23:33:00
6:53 PM,46.4,42.8,87,29.39,7.0,NW,31.1,39.1,0.05,Rain,Heavy Rain,320,2012-10-18 23:53:00
7:13 PM,46.4,42.8,87,29.39,10.0,NNW,32.2,39.1,0.02,Rain,Rain,330,2012-10-19 00:13:00
7:33 PM,44.6,42.8,93,29.40,7.0,Calm,Calm,38.0,0.04,Rain,Rain,320,2012-10-19 00:33:00
7:53 PM,44.6,42.8,93,29.40,7.0,NNW,29.9,40.3,0.06,Rain,Rain,330,2012-10-19 00:53:00
8:34 PM,44.6,42.8,93,29.41,10.0,NNW,31.1,41.4,0.03,Rain,Light Rain,330,2012-10-19 01:34:00
8:53 PM,44.6,42.8,93,29.42,7.0,NNW,32.2,40.3,0.04,,Overcast,330,2012-10-19 01:53:00
9:13 PM,44.6,42.8,93,29.42,7.0,NNW,28.8,41.4,N/A,Rain,Light Rain,330,2012-10-19 02:13:00
9:33 PM,44.6,42.8,93,29.42,10.0,NNW,27.6,38.0,N/A,,Overcast,330,2012-10-19 02:33:00
9:53 PM,44.6,42.8,93,29.43,4.0,NNW,31.1,38.0,0.01,,Overcast,330,2012-10-19 02:53:00
10:14 PM,44.6,41.0,87,29.44,4.0,NNW,27.6,39.1,0.01,Rain,Rain,330,2012-10-19 03:14:00
10:33 PM,44.6,41.0,87,29.44,4.0,NNW,28.8,41.4,0.02,Rain,Light Rain,330,2012-10-19 03:33:00
10:53 PM,44.6,41.0,87,29.45,5.0,NNW,32.2,39.1,0.03,Rain,Light Rain,330,2012-10-19 03:53:00
11:13 PM,44.6,41.0,87,29.46,4.0,NNW,27.6,36.8,0.01,Rain,Light Rain,330,2012-10-19 04:13:00
11:33 PM,44.6,41.0,87,29.46,4.0,NNW,26.5,39.1,0.04,Rain,Rain,330,2012-10-19 04:33:00
11:53 PM,44.6,41.0,87,29.46,7.0,NNW,28.8,40.3,0.05,Rain,Light Rain,340,2012-10-19 04:53:00